Time,TemperatureF,DewpointF,PressureIn,WindDirection,WindDirectionDegrees,WindSpeedMPH,WindSpeedGustMPH,Humidity,HourlyPrecipIn,Conditions,Clouds,dailyrainin,SolarRadiationWatts/m^2,SoftwareType,DateUTC
2013-07-06 00:02:00,62.1,19.4,29.60,NW,305,5.0,5.0,19,0.00,,,0.00,0,WeatherCatV1.15B25,2013-07-06 07:02:00,
2013-07-06 00:07:00,62.3,19.5,29.60,NW,310,3.0,3.0,19,0.00,,,0.00,0,WeatherCatV1.15B25,2013-07-06 07:07:00,
2013-07-06 00:12:00,62.3,19.5,29.60,NW,306,1.0,5.0,19,0.00,,,0.00,0,WeatherCatV1.15B25,2013-07-06 07:12:00,
2013-07-06 00:17:00,62.3,19.5,29.60,NW,306,1.0,4.0,19,0.00,,,0.00,0,WeatherCatV1.15B25,2013-07-06 07:17:00,
2013-07-06 00:22:00,62.3,20.7,29.60,NW,306,0.0,4.0,20,0.00,,,0.00,0,WeatherCatV1.15B25,2013-07-06 07:22:00,
2013-07-06 00:27:00,62.1,20.6,29.60,NW,307,4.0,6.0,20,0.00,,,0.00,0,WeatherCatV1.15B25,2013-07-06 07:27:00,
2013-07-06 00:32:00,62.0,20.5,29.60,NW,307,1.0,4.0,20,0.00,,,0.00,0,WeatherCatV1.15B25,2013-07-06 07:32:00,
2013-07-06 00:37:00,61.8,20.3,29.60,NW,308,2.0,3.0,20,0.00,,,0.00,0,WeatherCatV1.15B25,2013-07-06 07:37:00,
2013-07-06 00:42:00,61.6,19.0,29.60,NNW,331,3.0,5.0,19,0.00,,,0.00,0,WeatherCatV1.15B25,2013-07-06 07:42:00,
2013-07-06 00:47:00,61.6,19.0,29.60,NW,326,0.0,3.0,19,0.00,,,0.00,0,WeatherCatV1.15B25,2013-07-06 07:47:00,
2013-07-06 00:52:00,61.8,19.1,29.60,NW,324,4.0,6.0,19,0.00,,,0.00,0,WeatherCatV1.15B25,2013-07-06 07:52:00,
2013-07-06 00:57:00,61.8,19.1,29.60,NNW,341,2.0,6.0,19,0.00,,,0.00,0,WeatherCatV1.15B25,2013-07-06 07:57:00,
2013-07-06 01:02:00,61.8,19.1,29.59,NW,323,0.0,4.0,19,0.00,,,0.00,0,WeatherCatV1.15B25,2013-07-06 08:02:00,
2013-07-06 01:07:00,61.5,18.9,29.59,NW,305,0.0,2.0,19,0.00,,,0.00,0,WeatherCatV1.15B25,2013-07-06 08:07:00,
2013-07-06 01:12:00,61.3,19.9,29.59,NNW,333,0.0,5.0,20,0.00,,,0.00,0,WeatherCatV1.15B25,2013-07-06 08:12:00,
2013-07-06 01:17:00,61.0,19.7,29.57,NNW,328,3.0,5.0,20,0.00,,,0.00,0,WeatherCatV1.15B25,2013-07-06 08:17:00,
2013-07-06 01:22:00,60.9,19.6,29.57,NNW,327,1.0,1.0,20,0.00,,,0.00,0,WeatherCatV1.15B25,2013-07-06 08:22:00,
2013-07-06 01:27:00,60.9,19.6,29.57,NW,324,2.0,3.0,20,0.00,,,0.00,0,WeatherCatV1.15B25,2013-07-06 08:27:00,
2013-07-06 01:32:00,60.9,19.6,29.57,NW,324,0.0,1.0,20,0.00,,,0.00,0,WeatherCatV1.15B25,2013-07-06 08:32:00,
2013-07-06 01:37:00,60.7,19.4,29.57,NNW,328,1.0,4.0,20,0.00,,,0.00,0,WeatherCatV1.15B25,2013-07-06 08:37:00,
2013-07-06 01:42:00,60.5,19.2,29.57,NNW,343,0.0,6.0,20,0.00,,,0.00,0,WeatherCatV1.15B25,2013-07-06 08:42:00,
2013-07-06 01:47:00,60.2,19.0,29.57,NW,320,2.0,5.0,20,0.00,,,0.00,0,WeatherCatV1.15B25,2013-07-06 08:47:00,
2013-07-06 01:52:00,60.2,19.0,29.57,NNW,335,1.0,1.0,20,0.00,,,0.00,0,WeatherCatV1.15B25,2013-07-06 08:52:00,
2013-07-06 01:57:00,60.1,18.9,29.57,NNW,333,1.0,5.0,20,0.00,,,0.00,0,WeatherCatV1.15B25,2013-07-06 08:57:00,
2013-07-06 02:02:00,60.1,18.9,29.57,NNW,332,0.0,1.0,20,0.00,,,0.00,0,WeatherCatV1.15B25,2013-07-06 09:02:00,
2013-07-06 02:07:00,59.9,18.7,29.57,NNW,332,0.0,3.0,20,0.00,,,0.00,0,WeatherCatV1.15B25,2013-07-06 09:07:00,
2013-07-06 02:12:00,59.9,18.7,29.57,NNW,332,0.0,4.0,20,0.00,,,0.00,0,WeatherCatV1.15B25,2013-07-06 09:12:00,
2013-07-06 02:17:00,59.9,18.7,29.59,NNW,329,4.0,4.0,20,0.00,,,0.00,0,WeatherCatV1.15B25,2013-07-06 09:17:00,
2013-07-06 02:22:00,59.9,18.7,29.59,NW,315,2.0,3.0,20,0.00,,,0.00,0,WeatherCatV1.15B25,2013-07-06 09:22:00,
2013-07-06 02:27:00,59.9,18.7,29.59,NW,316,1.0,1.0,20,0.00,,,0.00,0,WeatherCatV1.15B25,2013-07-06 09:27:00,
2013-07-06 02:32:00,59.9,18.7,29.58,NW,321,0.0,3.0,20,0.00,,,0.00,0,WeatherCatV1.15B25,2013-07-06 09:32:00,
2013-07-06 02:37:00,59.9,18.7,29.58,NW,320,3.0,4.0,20,0.00,,,0.00,0,WeatherCatV1.15B25,2013-07-06 09:37:00,
2013-07-06 02:42:00,60.1,18.9,29.58,NNW,329,0.0,2.0,20,0.00,,,0.00,0,WeatherCatV1.15B25,2013-07-06 09:42:00,
2013-07-06 02:47:00,59.9,18.7,29.58,NW,320,4.0,4.0,20,0.00,,,0.00,0,WeatherCatV1.15B25,2013-07-06 09:47:00,
2013-07-06 02:52:00,60.1,18.9,29.58,NW,320,0.0,0.0,20,0.00,,,0.00,0,WeatherCatV1.15B25,2013-07-06 09:52:00,
2013-07-06 02:57:00,60.1,18.9,29.58,NW,318,1.0,5.0,20,0.00,,,0.00,0,WeatherCatV1.15B25,2013-07-06 09:57:00,
2013-07-06 03:02:00,60.1,18.9,29.58,NW,318,0.0,4.0,20,0.00,,,0.00,0,WeatherCatV1.15B25,2013-07-06 10:02:00,
2013-07-06 03:07:00,59.9,18.7,29.58,NW,318,4.0,4.0,20,0.00,,,0.00,0,WeatherCatV1.15B25,2013-07-06 10:07:00,
2013-07-06 03:12:00,59.9,18.7,29.58,NW,318,0.0,3.0,20,0.00,,,0.00,0,WeatherCatV1.15B25,2013-07-06 10:12:00,
2013-07-06 03:17:00,59.9,18.7,29.58,NW,317,2.0,3.0,20,0.00,,,0.00,0,WeatherCatV1.15B25,2013-07-06 10:17:00,
2013-07-06 03:22:00,59.8,18.7,29.58,NW,317,0.0,1.0,20,0.00,,,0.00,0,WeatherCatV1.15B25,2013-07-06 10:22:00,
2013-07-06 03:27:00,59.8,18.7,29.58,NW,316,0.0,0.0,20,0.00,,,0.00,0,WeatherCatV1.15B25,2013-07-06 10:27:00,
2013-07-06 03:32:00,59.6,18.5,29.58,NW,317,0.0,0.0,20,0.00,,,0.00,0,WeatherCatV1.15B25,2013-07-06 10:32:00,
2013-07-06 03:37:00,59.5,19.5,29.58,NW,317,0.0,4.0,21,0.00,,,0.00,0,WeatherCatV1.15B25,2013-07-06 10:37:00,
2013-07-06 03:42:00,59.3,19.4,29.58,NW,317,0.0,0.0,21,0.00,,,0.00,0,WeatherCatV1.15B25,2013-07-06 10:42:00,
2013-07-06 03:47:00,59.2,19.3,29.57,NW,317,1.0,1.0,21,0.00,,,0.00,0,WeatherCatV1.15B25,2013-07-06 10:47:00,
2013-07-06 03:52:00,59.0,19.1,29.57,NW,318,0.0,2.0,21,0.00,,,0.00,0,WeatherCatV1.15B25,2013-07-06 10:52:00,
2013-07-06 03:57:00,58.9,19.0,29.57,NW,318,0.0,0.0,21,0.00,,,0.00,0,WeatherCatV1.15B25,2013-07-06 10:57:00,
2013-07-06 04:02:00,58.7,18.9,29.57,NW,318,0.0,0.0,21,0.00,,,0.00,0,WeatherCatV1.15B25,2013-07-06 11:02:00,
2013-07-06 04:07:00,58.6,18.8,29.57,NW,318,0.0,0.0,21,0.00,,,0.00,0,WeatherCatV1.15B25,2013-07-06 11:07:00,
2013-07-06 04:12:00,58.6,18.8,29.57,NNW,328,0.0,4.0,21,0.00,,,0.00,0,WeatherCatV1.15B25,2013-07-06 11:12:00,
2013-07-06 04:17:00,58.7,18.9,29.58,NNW,328,2.0,2.0,21,0.00,,,0.00,0,WeatherCatV1.15B25,2013-07-06 11:17:00,
2013-07-06 04:22:00,59.2,19.3,29.58,NNW,328,0.0,0.0,21,0.00,,,0.00,0,WeatherCatV1.15B25,2013-07-06 11:22:00,
2013-07-06 04:27:00,59.3,18.2,29.58,NNW,329,0.0,1.0,20,0.00,,,0.00,0,WeatherCatV1.15B25,2013-07-06 11:27:00,
2013-07-06 04:32:00,59.9,18.7,29.57,NNW,329,1.0,3.0,20,0.00,,,0.00,0,WeatherCatV1.15B25,2013-07-06 11:32:00,
2013-07-06 04:37:00,60.4,19.2,29.57,NNW,329,0.0,0.0,20,0.00,,,0.00,0,WeatherCatV1.15B25,2013-07-06 11:37:00,
2013-07-06 04:42:00,60.5,18.0,29.57,NNW,329,1.0,3.0,19,0.00,,,0.00,0,WeatherCatV1.15B25,2013-07-06 11:42:00,
2013-07-06 04:47:00,61.2,17.4,29.57,NNW,333,0.0,0.0,18,0.00,,,0.00,0,WeatherCatV1.15B25,2013-07-06 11:47:00,
2013-07-06 04:52:00,60.9,17.1,29.57,SSW,202,0.0,3.0,18,0.00,,,0.00,0,WeatherCatV1.15B25,2013-07-06 11:52:00,
2013-07-06 04:57:00,60.5,16.8,29.57,SSW,202,0.0,0.0,18,0.00,,,0.00,0,WeatherCatV1.15B25,2013-07-06 11:57:00,
2013-07-06 05:02:00,60.5,18.0,29.57,SSW,202,0.0,0.0,19,0.00,,,0.00,0,WeatherCatV1.15B25,2013-07-06 12:02:00,
2013-07-06 05:07:00,60.4,18.0,29.57,SSW,202,0.0,0.0,19,0.00,,,0.00,0,WeatherCatV1.15B25,2013-07-06 12:07:00,
2013-07-06 05:12:00,60.5,18.0,29.57,SSW,204,0.0,0.0,19,0.00,,,0.00,0,WeatherCatV1.15B25,2013-07-06 12:12:00,
2013-07-06 05:17:00,60.4,18.0,29.58,SSW,204,0.0,0.0,19,0.00,,,0.00,0,WeatherCatV1.15B25,2013-07-06 12:17:00,
2013-07-06 05:22:00,60.2,19.0,29.58,SSW,204,0.0,0.0,20,0.00,,,0.00,0,WeatherCatV1.15B25,2013-07-06 12:22:00,
2013-07-06 05:27:00,60.2,19.0,29.58,SSW,204,2.0,2.0,20,0.00,,,0.00,0,WeatherCatV1.15B25,2013-07-06 12:27:00,
2013-07-06 05:32:00,59.9,17.6,29.58,SSW,200,0.0,3.0,19,0.00,,,0.00,0,WeatherCatV1.15B25,2013-07-06 12:32:00,
2013-07-06 05:37:00,59.6,18.5,29.58,SSW,200,0.0,0.0,20,0.00,,,0.00,0,WeatherCatV1.15B25,2013-07-06 12:37:00,
2013-07-06 05:42:00,59.5,18.4,29.58,SSW,200,0.0,0.0,20,0.00,,,0.00,0,WeatherCatV1.15B25,2013-07-06 12:42:00,
2013-07-06 05:47:00,59.3,18.2,29.58,South,176,4.0,4.0,20,0.00,,,0.00,5,WeatherCatV1.15B25,2013-07-06 12:47:00,
2013-07-06 05:52:00,59.3,17.1,29.58,South,176,0.0,0.0,19,0.00,,,0.00,7,WeatherCatV1.15B25,2013-07-06 12:52:00,
2013-07-06 05:57:00,59.5,18.4,29.58,South,176,0.0,0.0,20,0.00,,,0.00,9,WeatherCatV1.15B25,2013-07-06 12:57:00,
2013-07-06 06:02:00,59.5,18.4,29.58,South,176,0.0,0.0,20,0.00,,,0.00,11,WeatherCatV1.15B25,2013-07-06 13:02:00,
2013-07-06 06:07:00,59.5,18.4,29.58,South,176,0.0,0.0,20,0.00,,,0.00,14,WeatherCatV1.15B25,2013-07-06 13:07:00,
2013-07-06 06:12:00,59.5,19.5,29.58,South,176,0.0,1.0,21,0.00,,,0.00,18,WeatherCatV1.15B25,2013-07-06 13:12:00,
2013-07-06 06:18:00,59.3,19.4,29.60,South,175,0.0,0.0,21,0.00,,,0.00,18,WeatherCatV1.15B25,2013-07-06 13:18:00,
2013-07-06 06:23:00,59.3,20.5,29.60,South,176,2.0,3.0,22,0.00,,,0.00,32,WeatherCatV1.15B25,2013-07-06 13:23:00,
2013-07-06 06:28:00,59.5,20.6,29.60,South,176,0.0,1.0,22,0.00,,,0.00,56,WeatherCatV1.15B25,2013-07-06 13:28:00,
2013-07-06 06:33:00,59.8,20.9,29.60,SSE,158,0.0,1.0,22,0.00,,,0.00,67,WeatherCatV1.15B25,2013-07-06 13:33:00,
2013-07-06 06:38:00,60.1,21.1,29.60,SSE,158,0.0,3.0,22,0.00,,,0.00,84,WeatherCatV1.15B25,2013-07-06 13:38:00,
2013-07-06 06:43:00,60.4,22.4,29.60,SSE,158,0.0,2.0,23,0.00,,,0.00,97,WeatherCatV1.15B25,2013-07-06 13:43:00,
2013-07-06 06:48:00,60.9,21.8,29.59,SSE,158,0.0,1.0,22,0.00,,,0.00,111,WeatherCatV1.15B25,2013-07-06 13:48:00,
2013-07-06 06:53:00,61.2,22.1,29.59,SSE,158,0.0,0.0,22,0.00,,,0.00,125,WeatherCatV1.15B25,2013-07-06 13:53:00,
2013-07-06 06:58:00,61.6,23.4,29.59,SSE,158,0.0,0.0,23,0.00,,,0.00,139,WeatherCatV1.15B25,2013-07-06 13:58:00,
2013-07-06 07:03:00,62.1,22.8,29.59,SSE,158,0.0,0.0,22,0.00,,,0.00,153,WeatherCatV1.15B25,2013-07-06 14:03:00,
2013-07-06 07:08:00,62.6,22.1,29.59,SSE,158,0.0,1.0,21,0.00,,,0.00,169,WeatherCatV1.15B25,2013-07-06 14:08:00,
2013-07-06 07:13:00,63.1,23.6,29.59,SSE,158,0.0,0.0,22,0.00,,,0.00,183,WeatherCatV1.15B25,2013-07-06 14:13:00,
2013-07-06 07:18:00,63.7,24.1,29.61,SSE,158,0.0,0.0,22,0.00,,,0.00,197,WeatherCatV1.15B25,2013-07-06 14:18:00,
2013-07-06 07:23:00,64.3,23.5,29.61,SSE,158,0.0,1.0,21,0.00,,,0.00,213,WeatherCatV1.15B25,2013-07-06 14:23:00,
2013-07-06 07:28:00,65.0,24.1,29.61,SSE,158,0.0,2.0,21,0.00,,,0.00,229,WeatherCatV1.15B25,2013-07-06 14:28:00,
2013-07-06 07:33:00,65.5,24.5,29.60,SSE,158,0.0,3.0,21,0.00,,,0.00,244,WeatherCatV1.15B25,2013-07-06 14:33:00,
2013-07-06 07:38:00,66.0,23.8,29.60,SSE,158,0.0,0.0,20,0.00,,,0.00,262,WeatherCatV1.15B25,2013-07-06 14:38:00,
2013-07-06 07:43:00,66.4,24.1,29.60,SSE,158,0.0,1.0,20,0.00,,,0.00,279,WeatherCatV1.15B25,2013-07-06 14:43:00,
2013-07-06 07:48:00,66.6,21.8,29.59,SSE,158,0.0,0.0,18,0.00,,,0.00,295,WeatherCatV1.15B25,2013-07-06 14:48:00,
2013-07-06 07:53:00,66.8,23.2,29.59,SSE,158,0.0,0.0,19,0.00,,,0.00,309,WeatherCatV1.15B25,2013-07-06 14:53:00,
2013-07-06 07:58:00,66.9,22.0,29.59,SSE,158,0.0,1.0,18,0.00,,,0.00,325,WeatherCatV1.15B25,2013-07-06 14:58:00,
2013-07-06 08:03:00,67.1,23.5,29.60,SSE,158,0.0,0.0,19,0.00,,,0.00,343,WeatherCatV1.15B25,2013-07-06 15:03:00,
2013-07-06 08:08:00,66.9,22.0,29.60,SSE,160,0.0,0.0,18,0.00,,,0.00,359,WeatherCatV1.15B25,2013-07-06 15:08:00,
2013-07-06 08:13:00,66.8,21.9,29.60,SSE,160,0.0,1.0,18,0.00,,,0.00,376,WeatherCatV1.15B25,2013-07-06 15:13:00,
2013-07-06 08:18:00,66.6,24.3,29.63,SSE,160,0.0,0.0,20,0.00,,,0.00,392,WeatherCatV1.15B25,2013-07-06 15:18:00,
2013-07-06 08:24:00,66.6,24.3,29.63,SSE,160,0.0,1.0,20,0.00,,,0.00,411,WeatherCatV1.15B25,2013-07-06 15:24:00,
2013-07-06 08:29:00,66.6,21.8,29.63,SSE,160,0.0,1.0,18,0.00,,,0.00,427,WeatherCatV1.15B25,2013-07-06 15:29:00,
2013-07-06 08:34:00,66.6,21.8,29.63,SSE,160,0.0,0.0,18,0.00,,,0.00,439,WeatherCatV1.15B25,2013-07-06 15:34:00,
2013-07-06 08:39:00,66.9,24.5,29.63,SSE,160,0.0,0.0,20,0.00,,,0.00,457,WeatherCatV1.15B25,2013-07-06 15:39:00,
2013-07-06 08:44:00,67.3,22.3,29.63,SSE,160,0.0,0.0,18,0.00,,,0.00,473,WeatherCatV1.15B25,2013-07-06 15:44:00,
2013-07-06 08:49:00,67.3,22.3,29.63,SSE,160,0.0,0.0,18,0.00,,,0.00,490,WeatherCatV1.15B25,2013-07-06 15:49:00,
2013-07-06 08:54:00,67.4,22.4,29.63,SSE,160,0.0,0.0,18,0.00,,,0.00,506,WeatherCatV1.15B25,2013-07-06 15:54:00,
2013-07-06 08:59:00,67.8,22.8,29.62,South,172,2.0,2.0,18,0.00,,,0.00,424,WeatherCatV1.15B25,2013-07-06 15:59:00,
2013-07-06 09:04:00,67.8,24.0,29.62,West,266,0.0,2.0,19,0.00,,,0.00,381,WeatherCatV1.15B25,2013-07-06 16:04:00,
2013-07-06 09:09:00,67.8,22.8,29.62,WNW,293,3.0,4.0,18,0.00,,,0.00,548,WeatherCatV1.15B25,2013-07-06 16:09:00,
2013-07-06 09:14:00,67.8,24.0,29.63,WNW,293,0.0,6.0,19,0.00,,,0.00,564,WeatherCatV1.15B25,2013-07-06 16:14:00,
2013-07-06 09:19:00,67.8,24.0,29.63,WNW,303,6.0,9.0,19,0.00,,,0.00,578,WeatherCatV1.15B25,2013-07-06 16:19:00,
2013-07-06 09:27:00,67.6,26.3,29.63,NW,316,0.0,3.0,21,0.00,,,0.00,601,WeatherCatV1.15B25,2013-07-06 16:27:00,
2013-07-06 09:32:00,67.8,25.3,29.63,WSW,241,4.0,6.0,20,0.00,,,0.00,617,WeatherCatV1.15B25,2013-07-06 16:32:00,
2013-07-06 09:37:00,67.9,25.4,29.63,WNW,283,3.0,10.0,20,0.00,,,0.00,629,WeatherCatV1.15B25,2013-07-06 16:37:00,
2013-07-06 09:42:00,68.1,25.5,29.63,WNW,293,3.0,3.0,20,0.00,,,0.00,643,WeatherCatV1.15B25,2013-07-06 16:42:00,
2013-07-06 09:47:00,68.4,24.5,29.63,West,279,0.0,8.0,19,0.00,,,0.00,657,WeatherCatV1.15B25,2013-07-06 16:47:00,
2013-07-06 09:53:00,68.6,27.1,29.63,WNW,283,6.0,10.0,21,0.00,,,0.00,673,WeatherCatV1.15B25,2013-07-06 16:53:00,
2013-07-06 09:58:00,69.1,26.3,29.63,West,259,1.0,6.0,20,0.00,,,0.00,686,WeatherCatV1.15B25,2013-07-06 16:58:00,
2013-07-06 10:03:00,69.3,26.5,29.61,WNW,293,0.0,7.0,20,0.00,,,0.00,700,WeatherCatV1.15B25,2013-07-06 17:03:00,
2013-07-06 10:08:00,69.4,30.0,29.61,NW,309,5.0,11.0,23,0.00,,,0.00,710,WeatherCatV1.15B25,2013-07-06 17:08:00,
2013-07-06 10:13:00,69.4,28.9,29.61,North,349,6.0,10.0,22,0.00,,,0.00,722,WeatherCatV1.15B25,2013-07-06 17:13:00,
2013-07-06 10:19:00,69.4,30.0,29.63,NW,313,9.0,11.0,23,0.00,,,0.00,735,WeatherCatV1.15B25,2013-07-06 17:19:00,
2013-07-06 10:26:00,69.4,31.0,29.63,NW,305,9.0,9.0,24,0.00,,,0.00,752,WeatherCatV1.15B25,2013-07-06 17:26:00,
2013-07-06 10:34:00,69.6,30.2,29.64,NNW,336,5.0,6.0,23,0.00,,,0.00,772,WeatherCatV1.15B25,2013-07-06 17:34:00,
2013-07-06 10:39:00,69.6,30.2,29.64,WNW,283,5.0,10.0,23,0.00,,,0.00,784,WeatherCatV1.15B25,2013-07-06 17:39:00,
2013-07-06 10:44:00,69.8,31.4,29.64,NW,308,3.0,7.0,24,0.00,,,0.00,795,WeatherCatV1.15B25,2013-07-06 17:44:00,
2013-07-06 10:51:00,69.9,30.4,29.64,WNW,288,12.0,15.0,23,0.00,,,0.00,807,WeatherCatV1.15B25,2013-07-06 17:51:00,
2013-07-06 10:57:00,70.3,30.7,29.64,WNW,293,4.0,10.0,23,0.00,,,0.00,828,WeatherCatV1.15B25,2013-07-06 17:57:00,
2013-07-06 11:03:00,70.8,31.2,29.64,NW,315,4.0,8.0,23,0.00,,,0.00,835,WeatherCatV1.15B25,2013-07-06 18:03:00,
2013-07-06 11:08:00,70.6,29.9,29.64,NW,320,11.0,11.0,22,0.00,,,0.00,844,WeatherCatV1.15B25,2013-07-06 18:08:00,
2013-07-06 11:14:00,70.4,30.8,29.64,WNW,288,6.0,12.0,23,0.00,,,0.00,856,WeatherCatV1.15B25,2013-07-06 18:14:00,
2013-07-06 11:22:00,70.6,29.9,29.64,WNW,293,4.0,13.0,22,0.00,,,0.00,867,WeatherCatV1.15B25,2013-07-06 18:22:00,
2013-07-06 11:27:00,70.9,30.2,29.64,North,357,3.0,10.0,22,0.00,,,0.00,875,WeatherCatV1.15B25,2013-07-06 18:27:00,
2013-07-06 11:32:00,71.1,31.4,29.64,WSW,256,2.0,17.0,23,0.00,,,0.00,884,WeatherCatV1.15B25,2013-07-06 18:32:00,
2013-07-06 11:37:00,71.3,31.6,29.64,NNW,343,4.0,13.0,23,0.00,,,0.00,893,WeatherCatV1.15B25,2013-07-06 18:37:00,
2013-07-06 11:44:00,71.5,31.8,29.63,WNW,288,5.0,13.0,23,0.00,,,0.00,904,WeatherCatV1.15B25,2013-07-06 18:44:00,
2013-07-06 11:49:00,71.1,30.3,29.63,NW,319,11.0,15.0,22,0.00,,,0.00,909,WeatherCatV1.15B25,2013-07-06 18:49:00,
2013-07-06 11:55:00,71.1,32.5,29.63,NW,307,11.0,11.0,24,0.00,,,0.00,918,WeatherCatV1.15B25,2013-07-06 18:55:00,
2013-07-06 12:00:00,71.5,31.8,29.62,WNW,283,14.0,19.0,23,0.00,,,0.00,925,WeatherCatV1.15B25,2013-07-06 19:00:00,
2013-07-06 12:07:00,71.3,31.6,29.62,WNW,300,4.0,9.0,23,0.00,,,0.00,933,WeatherCatV1.15B25,2013-07-06 19:07:00,
2013-07-06 12:12:00,71.6,31.8,29.62,WNW,293,11.0,18.0,23,0.00,,,0.00,935,WeatherCatV1.15B25,2013-07-06 19:12:00,
2013-07-06 12:18:00,72.0,31.1,29.63,West,266,6.0,13.0,22,0.00,,,0.00,940,WeatherCatV1.15B25,2013-07-06 19:18:00,
2013-07-06 12:23:00,72.3,32.4,29.63,WNW,283,7.0,7.0,23,0.00,,,0.00,944,WeatherCatV1.15B25,2013-07-06 19:23:00,
2013-07-06 12:28:00,72.5,30.3,29.63,NW,316,9.0,14.0,21,0.00,,,0.00,949,WeatherCatV1.15B25,2013-07-06 19:28:00,
2013-07-06 12:33:00,72.7,30.5,29.62,WNW,283,10.0,19.0,21,0.00,,,0.00,953,WeatherCatV1.15B25,2013-07-06 19:33:00,
2013-07-06 12:40:00,72.8,30.6,29.62,WSW,251,10.0,22.0,21,0.00,,,0.00,958,WeatherCatV1.15B25,2013-07-06 19:40:00,
2013-07-06 12:45:00,72.8,29.4,29.62,NW,305,7.0,11.0,20,0.00,,,0.00,963,WeatherCatV1.15B25,2013-07-06 19:45:00,
2013-07-06 12:50:00,73.3,31.0,29.62,West,268,8.0,9.0,21,0.00,,,0.00,969,WeatherCatV1.15B25,2013-07-06 19:50:00,
2013-07-06 12:55:00,73.5,30.0,29.62,NNW,343,6.0,15.0,20,0.00,,,0.00,963,WeatherCatV1.15B25,2013-07-06 19:55:00,
2013-07-06 13:03:00,73.2,30.9,29.61,NNW,337,10.0,24.0,21,0.00,,,0.00,969,WeatherCatV1.15B25,2013-07-06 20:03:00,
2013-07-06 13:08:00,72.8,29.4,29.61,NW,311,20.0,20.0,20,0.00,,,0.00,972,WeatherCatV1.15B25,2013-07-06 20:08:00,
2013-07-06 13:16:00,73.2,30.9,29.64,NW,304,10.0,19.0,21,0.00,,,0.00,974,WeatherCatV1.15B25,2013-07-06 20:16:00,
2013-07-06 13:22:00,73.3,29.8,29.64,West,274,9.0,15.0,20,0.00,,,0.00,974,WeatherCatV1.15B25,2013-07-06 20:22:00,
2013-07-06 13:27:00,73.2,30.9,29.64,West,272,14.0,19.0,21,0.00,,,0.00,970,WeatherCatV1.15B25,2013-07-06 20:27:00,
2013-07-06 13:34:00,73.0,33.0,29.64,WNW,293,13.0,22.0,23,0.00,,,0.00,965,WeatherCatV1.15B25,2013-07-06 20:34:00,
2013-07-06 13:40:00,73.0,33.0,29.64,SSW,206,9.0,12.0,23,0.00,,,0.00,969,WeatherCatV1.15B25,2013-07-06 20:40:00,
2013-07-06 13:46:00,74.2,31.7,29.62,SSW,211,10.0,15.0,21,0.00,,,0.00,965,WeatherCatV1.15B25,2013-07-06 20:46:00,
2013-07-06 13:52:00,74.9,31.1,29.62,WSW,248,9.0,17.0,20,0.00,,,0.00,963,WeatherCatV1.15B25,2013-07-06 20:52:00,
2013-07-06 13:58:00,74.7,31.0,29.62,SW,228,10.0,18.0,20,0.00,,,0.00,958,WeatherCatV1.15B25,2013-07-06 20:58:00,
2013-07-06 14:03:00,74.4,31.9,29.62,SW,220,0.0,18.0,21,0.00,,,0.00,960,WeatherCatV1.15B25,2013-07-06 21:03:00,
2013-07-06 14:09:00,74.4,30.7,29.62,West,270,5.0,14.0,20,0.00,,,0.00,947,WeatherCatV1.15B25,2013-07-06 21:09:00,
2013-07-06 14:14:00,75.6,30.4,29.60,WNW,293,10.0,13.0,19,0.00,,,0.00,951,WeatherCatV1.15B25,2013-07-06 21:14:00,
2013-07-06 14:19:00,75.3,31.4,29.60,WNW,283,7.0,16.0,20,0.00,,,0.00,944,WeatherCatV1.15B25,2013-07-06 21:19:00,
2013-07-06 14:24:00,74.4,31.9,29.60,NW,312,4.0,17.0,21,0.00,,,0.00,942,WeatherCatV1.15B25,2013-07-06 21:24:00,
2013-07-06 14:31:00,74.4,31.9,29.61,WSW,249,13.0,16.0,21,0.00,,,0.00,937,WeatherCatV1.15B25,2013-07-06 21:31:00,
2013-07-06 14:37:00,74.9,31.1,29.61,WNW,283,6.0,12.0,20,0.00,,,0.00,925,WeatherCatV1.15B25,2013-07-06 21:37:00,
2013-07-06 14:43:00,74.7,31.0,29.61,WNW,297,11.0,22.0,20,0.00,,,0.00,918,WeatherCatV1.15B25,2013-07-06 21:43:00,
2013-07-06 14:48:00,74.6,30.9,29.61,NW,307,21.0,21.0,20,0.00,,,0.00,911,WeatherCatV1.15B25,2013-07-06 21:48:00,
2013-07-06 14:53:00,73.7,31.3,29.61,SW,226,9.0,22.0,21,0.00,,,0.00,902,WeatherCatV1.15B25,2013-07-06 21:53:00,
2013-07-06 14:58:00,73.9,31.5,29.61,West,276,7.0,25.0,21,0.00,,,0.00,895,WeatherCatV1.15B25,2013-07-06 21:58:00,
2013-07-06 15:03:00,73.9,30.3,29.60,NW,312,11.0,20.0,20,0.00,,,0.00,889,WeatherCatV1.15B25,2013-07-06 22:03:00,
2013-07-06 15:08:00,73.9,31.5,29.60,WSW,241,4.0,11.0,21,0.00,,,0.00,879,WeatherCatV1.15B25,2013-07-06 22:08:00,
2013-07-06 15:14:00,74.9,32.3,29.60,SW,227,3.0,15.0,21,0.00,,,0.00,870,WeatherCatV1.15B25,2013-07-06 22:14:00,
2013-07-06 15:19:00,74.7,32.2,29.60,WNW,288,12.0,15.0,21,0.00,,,0.00,860,WeatherCatV1.15B25,2013-07-06 22:19:00,
2013-07-06 15:27:00,74.6,30.9,29.60,WSW,243,6.0,17.0,20,0.00,,,0.00,844,WeatherCatV1.15B25,2013-07-06 22:27:00,
2013-07-06 15:32:00,74.2,31.7,29.61,NNW,339,9.0,17.0,21,0.00,,,0.00,837,WeatherCatV1.15B25,2013-07-06 22:32:00,
2013-07-06 15:37:00,73.9,31.5,29.61,WNW,301,7.0,15.0,21,0.00,,,0.00,824,WeatherCatV1.15B25,2013-07-06 22:37:00,
2013-07-06 15:45:00,74.0,32.7,29.62,WNW,297,16.0,17.0,22,0.00,,,0.00,809,WeatherCatV1.15B25,2013-07-06 22:45:00,
2013-07-06 15:50:00,74.0,32.7,29.62,SW,232,11.0,23.0,22,0.00,,,0.00,795,WeatherCatV1.15B25,2013-07-06 22:50:00,
2013-07-06 15:57:00,74.0,32.7,29.62,WNW,303,11.0,16.0,22,0.00,,,0.00,780,WeatherCatV1.15B25,2013-07-06 22:57:00,
2013-07-06 16:02:00,74.0,31.6,29.62,West,270,23.0,32.0,21,0.00,,,0.00,773,WeatherCatV1.15B25,2013-07-06 23:02:00,
2013-07-06 16:08:00,74.7,29.7,29.62,West,262,10.0,14.0,19,0.00,,,0.00,756,WeatherCatV1.15B25,2013-07-06 23:08:00,
2013-07-06 16:17:00,74.6,30.9,29.59,WNW,288,11.0,13.0,20,0.00,,,0.00,735,WeatherCatV1.15B25,2013-07-06 23:17:00,
2013-07-06 16:22:00,74.2,30.5,29.59,WNW,288,7.0,10.0,20,0.00,,,0.00,724,WeatherCatV1.15B25,2013-07-06 23:22:00,
2013-07-06 16:27:00,74.6,33.2,29.59,WNW,301,12.0,12.0,22,0.00,,,0.00,710,WeatherCatV1.15B25,2013-07-06 23:27:00,
2013-07-06 16:32:00,75.4,31.5,29.59,WNW,283,13.0,16.0,20,0.00,,,0.00,700,WeatherCatV1.15B25,2013-07-06 23:32:00,
2013-07-06 16:37:00,75.3,30.2,29.59,NW,320,7.0,22.0,19,0.00,,,0.00,686,WeatherCatV1.15B25,2013-07-06 23:37:00,
2013-07-06 16:43:00,75.4,31.5,29.59,West,278,6.0,17.0,20,0.00,,,0.00,668,WeatherCatV1.15B25,2013-07-06 23:43:00,
2013-07-06 16:48:00,75.3,31.4,29.58,WNW,283,10.0,21.0,20,0.00,,,0.00,652,WeatherCatV1.15B25,2013-07-06 23:48:00,
2013-07-06 16:57:00,74.0,30.4,29.58,WNW,288,14.0,24.0,20,0.00,,,0.00,629,WeatherCatV1.15B25,2013-07-06 23:57:00,
2013-07-06 17:02:00,73.5,31.2,29.59,WNW,288,11.0,20.0,21,0.00,,,0.00,615,WeatherCatV1.15B25,2013-07-07 00:02:00,
2013-07-06 17:09:00,74.0,31.6,29.59,WNW,293,12.0,17.0,21,0.00,,,0.00,598,WeatherCatV1.15B25,2013-07-07 00:09:00,
2013-07-06 17:15:00,74.0,31.6,29.59,WNW,297,13.0,16.0,21,0.00,,,0.00,578,WeatherCatV1.15B25,2013-07-07 00:15:00,
2013-07-06 17:20:00,73.9,31.5,29.59,WNW,300,16.0,16.0,21,0.00,,,0.00,564,WeatherCatV1.15B25,2013-07-07 00:20:00,
2013-07-06 17:26:00,73.5,31.2,29.59,West,266,6.0,12.0,21,0.00,,,0.00,541,WeatherCatV1.15B25,2013-07-07 00:26:00,
2013-07-06 17:32:00,73.5,31.2,29.59,WSW,244,4.0,19.0,21,0.00,,,0.00,527,WeatherCatV1.15B25,2013-07-07 00:32:00,
2013-07-06 17:37:00,73.5,33.4,29.59,WSW,252,7.0,7.0,23,0.00,,,0.00,508,WeatherCatV1.15B25,2013-07-07 00:37:00,
2013-07-06 17:42:00,73.5,32.3,29.59,NW,313,14.0,14.0,22,0.00,,,0.00,492,WeatherCatV1.15B25,2013-07-07 00:42:00,
2013-07-06 17:50:00,72.8,32.8,29.60,South,172,7.0,17.0,23,0.00,,,0.00,468,WeatherCatV1.15B25,2013-07-07 00:50:00,
2013-07-06 17:55:00,72.8,31.7,29.60,WNW,293,14.0,17.0,22,0.00,,,0.00,454,WeatherCatV1.15B25,2013-07-07 00:55:00,
2013-07-06 18:01:00,72.3,32.4,29.61,West,272,0.0,10.0,23,0.00,,,0.00,431,WeatherCatV1.15B25,2013-07-07 01:01:00,
2013-07-06 18:07:00,72.5,32.6,29.61,WSW,245,9.0,12.0,23,0.00,,,0.00,413,WeatherCatV1.15B25,2013-07-07 01:07:00,
2013-07-06 18:12:00,72.7,31.7,29.61,WNW,283,9.0,15.0,22,0.00,,,0.00,396,WeatherCatV1.15B25,2013-07-07 01:12:00,
2013-07-06 18:18:00,72.5,32.6,29.58,WSW,242,3.0,11.0,23,0.00,,,0.00,378,WeatherCatV1.15B25,2013-07-07 01:18:00,
2013-07-06 18:25:00,72.1,32.3,29.58,WNW,283,7.0,15.0,23,0.00,,,0.00,353,WeatherCatV1.15B25,2013-07-07 01:25:00,
2013-07-06 18:30:00,71.6,31.8,29.59,NW,312,19.0,20.0,23,0.00,,,0.00,336,WeatherCatV1.15B25,2013-07-07 01:30:00,
2013-07-06 18:35:00,71.5,32.8,29.59,West,261,14.0,20.0,24,0.00,,,0.00,322,WeatherCatV1.15B25,2013-07-07 01:35:00,
2013-07-06 18:40:00,71.3,31.6,29.59,WNW,288,10.0,16.0,23,0.00,,,0.00,302,WeatherCatV1.15B25,2013-07-07 01:40:00,
2013-07-06 18:46:00,70.8,33.2,29.60,WNW,299,7.0,19.0,25,0.00,,,0.00,283,WeatherCatV1.15B25,2013-07-07 01:46:00,
2013-07-06 18:53:00,70.6,32.0,29.60,WNW,297,10.0,11.0,24,0.00,,,0.00,262,WeatherCatV1.15B25,2013-07-07 01:53:00,
2013-07-06 18:59:00,70.6,33.1,29.60,WNW,293,7.0,10.0,25,0.00,,,0.00,241,WeatherCatV1.15B25,2013-07-07 01:59:00,
2013-07-06 19:05:00,70.8,33.2,29.60,WNW,283,9.0,13.0,25,0.00,,,0.00,223,WeatherCatV1.15B25,2013-07-07 02:05:00,
2013-07-06 19:11:00,70.3,32.8,29.60,West,270,13.0,17.0,25,0.00,,,0.00,204,WeatherCatV1.15B25,2013-07-07 02:11:00,
2013-07-06 19:17:00,69.9,32.5,29.58,SW,228,4.0,12.0,25,0.00,,,0.00,186,WeatherCatV1.15B25,2013-07-07 02:17:00,
2013-07-06 19:23:00,69.6,32.2,29.58,NW,304,6.0,13.0,25,0.00,,,0.00,167,WeatherCatV1.15B25,2013-07-07 02:23:00,
2013-07-06 19:28:00,69.3,32.9,29.58,NW,313,13.0,15.0,26,0.00,,,0.00,151,WeatherCatV1.15B25,2013-07-07 02:28:00,
2013-07-06 19:34:00,68.9,32.6,29.58,West,276,12.0,13.0,26,0.00,,,0.00,134,WeatherCatV1.15B25,2013-07-07 02:34:00,
2013-07-06 19:39:00,68.6,32.3,29.58,WNW,293,11.0,19.0,26,0.00,,,0.00,120,WeatherCatV1.15B25,2013-07-07 02:39:00,
2013-07-06 19:45:00,68.3,33.0,29.59,WSW,257,9.0,15.0,27,0.00,,,0.00,21,WeatherCatV1.15B25,2013-07-07 02:45:00,
2013-07-06 19:50:00,67.8,32.6,29.59,WNW,288,9.0,18.0,27,0.00,,,0.00,47,WeatherCatV1.15B25,2013-07-07 02:50:00,
2013-07-06 19:55:00,67.4,33.2,29.59,WNW,303,10.0,13.0,28,0.00,,,0.00,16,WeatherCatV1.15B25,2013-07-07 02:55:00,
2013-07-06 20:01:00,66.9,31.8,29.60,NW,305,10.0,13.0,27,0.00,,,0.00,16,WeatherCatV1.15B25,2013-07-07 03:01:00,
2013-07-06 20:06:00,66.6,31.6,29.60,West,279,6.0,14.0,27,0.00,,,0.00,16,WeatherCatV1.15B25,2013-07-07 03:06:00,
2013-07-06 20:12:00,66.1,32.0,29.60,WNW,293,8.0,14.0,28,0.00,,,0.00,32,WeatherCatV1.15B25,2013-07-07 03:12:00,
2013-07-06 20:17:00,65.8,31.8,29.60,WNW,288,9.0,13.0,28,0.00,,,0.00,14,WeatherCatV1.15B25,2013-07-07 03:17:00,
2013-07-06 20:22:00,65.3,32.2,29.60,NNW,331,10.0,17.0,29,0.00,,,0.00,14,WeatherCatV1.15B25,2013-07-07 03:22:00,
2013-07-06 20:28:00,64.8,32.6,29.60,NW,312,13.0,13.0,30,0.00,,,0.00,5,WeatherCatV1.15B25,2013-07-07 03:28:00,
2013-07-06 20:33:00,64.3,32.2,29.62,WNW,293,8.0,15.0,30,0.00,,,0.00,0,WeatherCatV1.15B25,2013-07-07 03:33:00,
2013-07-06 20:38:00,64.0,32.8,29.62,West,278,14.0,14.0,31,0.00,,,0.00,0,WeatherCatV1.15B25,2013-07-07 03:38:00,
2013-07-06 20:43:00,63.7,32.5,29.62,WNW,288,5.0,11.0,31,0.00,,,0.00,0,WeatherCatV1.15B25,2013-07-07 03:43:00,
2013-07-06 20:51:00,63.1,32.8,29.62,WNW,293,7.0,13.0,32,0.00,,,0.00,0,WeatherCatV1.15B25,2013-07-07 03:51:00,
2013-07-06 20:57:00,62.7,33.2,29.62,NW,309,5.0,7.0,33,0.00,,,0.00,0,WeatherCatV1.15B25,2013-07-07 03:57:00,
2013-07-06 21:01:00,62.4,32.9,29.63,NW,314,6.0,11.0,33,0.00,,,0.00,0,WeatherCatV1.15B25,2013-07-07 04:01:00,
2013-07-06 21:03:00,62.4,33.7,29.63,WNW,300,11.0,15.0,34,0.00,,,0.00,0,WeatherCatV1.15B25,2013-07-07 04:03:00,
2013-07-06 21:06:00,62.3,33.6,29.63,WNW,293,7.0,15.0,34,0.00,,,0.00,0,WeatherCatV1.15B25,2013-07-07 04:06:00,
2013-07-06 21:09:00,62.1,34.1,29.63,WNW,301,5.0,10.0,35,0.00,,,0.00,0,WeatherCatV1.15B25,2013-07-07 04:09:00,
2013-07-06 21:12:00,62.0,34.0,29.63,WNW,300,7.0,12.0,35,0.00,,,0.00,0,WeatherCatV1.15B25,2013-07-07 04:12:00,
2013-07-06 21:17:00,61.8,33.9,29.64,NW,312,6.0,10.0,35,0.00,,,0.00,0,WeatherCatV1.15B25,2013-07-07 04:17:00,
2013-07-06 21:22:00,61.6,34.4,29.64,NW,312,3.0,14.0,36,0.00,,,0.00,0,WeatherCatV1.15B25,2013-07-07 04:22:00,
2013-07-06 21:27:00,61.5,34.3,29.64,WNW,293,8.0,11.0,36,0.00,,,0.00,0,WeatherCatV1.15B25,2013-07-07 04:27:00,
2013-07-06 21:32:00,61.3,34.1,29.65,WNW,293,9.0,10.0,36,0.00,,,0.00,0,WeatherCatV1.15B25,2013-07-07 04:32:00,
2013-07-06 21:37:00,61.2,34.7,29.65,WNW,293,6.0,9.0,37,0.00,,,0.00,0,WeatherCatV1.15B25,2013-07-07 04:37:00,
2013-07-06 21:42:00,61.0,34.5,29.65,NW,307,5.0,7.0,37,0.00,,,0.00,0,WeatherCatV1.15B25,2013-07-07 04:42:00,
2013-07-06 21:47:00,60.9,35.1,29.65,NW,305,5.0,6.0,38,0.00,,,0.00,0,WeatherCatV1.15B25,2013-07-07 04:47:00,
2013-07-06 21:52:00,60.7,34.9,29.65,WNW,293,5.0,7.0,38,0.00,,,0.00,0,WeatherCatV1.15B25,2013-07-07 04:52:00,
2013-07-06 21:57:00,60.4,34.7,29.65,WNW,299,1.0,6.0,38,0.00,,,0.00,0,WeatherCatV1.15B25,2013-07-07 04:57:00,
2013-07-06 22:02:00,60.2,35.2,29.67,NNW,330,0.0,1.0,39,0.00,,,0.00,0,WeatherCatV1.15B25,2013-07-07 05:02:00,
2013-07-06 22:07:00,60.1,35.1,29.67,NNW,333,2.0,4.0,39,0.00,,,0.00,0,WeatherCatV1.15B25,2013-07-07 05:07:00,
2013-07-06 22:12:00,60.1,34.4,29.67,NNW,346,1.0,6.0,38,0.00,,,0.00,0,WeatherCatV1.15B25,2013-07-07 05:12:00,
2013-07-06 22:17:00,59.9,34.2,29.66,NNW,346,0.0,4.0,38,0.00,,,0.00,0,WeatherCatV1.15B25,2013-07-07 05:17:00,
2013-07-06 22:22:00,59.9,34.2,29.66,NNW,348,4.0,5.0,38,0.00,,,0.00,0,WeatherCatV1.15B25,2013-07-07 05:22:00,
2013-07-06 22:27:00,59.9,34.2,29.66,North,349,4.0,6.0,38,0.00,,,0.00,0,WeatherCatV1.15B25,2013-07-07 05:27:00,
2013-07-06 22:32:00,59.9,34.2,29.66,NNW,346,2.0,6.0,38,0.00,,,0.00,0,WeatherCatV1.15B25,2013-07-07 05:32:00,
2013-07-06 22:37:00,59.8,33.5,29.66,NW,313,6.0,7.0,37,0.00,,,0.00,0,WeatherCatV1.15B25,2013-07-07 05:37:00,
2013-07-06 22:42:00,59.9,32.9,29.66,NW,310,4.0,7.0,36,0.00,,,0.00,0,WeatherCatV1.15B25,2013-07-07 05:42:00,
2013-07-06 22:47:00,60.2,33.1,29.65,WNW,293,5.0,7.0,36,0.00,,,0.00,0,WeatherCatV1.15B25,2013-07-07 05:47:00,
2013-07-06 22:52:00,60.2,33.1,29.65,West,265,5.0,10.0,36,0.00,,,0.00,0,WeatherCatV1.15B25,2013-07-07 05:52:00,
2013-07-06 22:57:00,60.4,33.3,29.65,WNW,293,3.0,6.0,36,0.00,,,0.00,0,WeatherCatV1.15B25,2013-07-07 05:57:00,
2013-07-06 23:02:00,60.2,33.1,29.65,WNW,293,4.0,8.0,36,0.00,,,0.00,0,WeatherCatV1.15B25,2013-07-07 06:02:00,
2013-07-06 23:07:00,60.2,33.1,29.65,NW,312,4.0,7.0,36,0.00,,,0.00,0,WeatherCatV1.15B25,2013-07-07 06:07:00,
2013-07-06 23:12:00,60.1,33.1,29.65,West,278,6.0,10.0,36,0.00,,,0.00,0,WeatherCatV1.15B25,2013-07-07 06:12:00,
2013-07-06 23:17:00,60.1,33.1,29.63,WNW,293,9.0,11.0,36,0.00,,,0.00,0,WeatherCatV1.15B25,2013-07-07 06:17:00,
2013-07-06 23:22:00,59.9,33.6,29.63,WNW,283,6.0,13.0,37,0.00,,,0.00,0,WeatherCatV1.15B25,2013-07-07 06:22:00,
2013-07-06 23:27:00,60.1,33.1,29.63,WNW,301,11.0,14.0,36,0.00,,,0.00,0,WeatherCatV1.15B25,2013-07-07 06:27:00,
2013-07-06 23:32:00,60.2,33.1,29.63,WNW,288,11.0,11.0,36,0.00,,,0.00,0,WeatherCatV1.15B25,2013-07-07 06:32:00,
2013-07-06 23:37:00,60.1,33.1,29.63,WNW,288,11.0,11.0,36,0.00,,,0.00,0,WeatherCatV1.15B25,2013-07-07 06:37:00,
2013-07-06 23:42:00,59.9,33.6,29.63,WNW,303,6.0,11.0,37,0.00,,,0.00,0,WeatherCatV1.15B25,2013-07-07 06:42:00,
2013-07-06 23:47:00,59.8,33.5,29.63,WNW,293,7.0,10.0,37,0.00,,,0.00,0,WeatherCatV1.15B25,2013-07-07 06:47:00,
2013-07-06 23:52:00,59.5,33.9,29.63,WNW,293,5.0,12.0,38,0.00,,,0.00,0,WeatherCatV1.15B25,2013-07-07 06:52:00,
2013-07-06 23:57:00,59.3,33.7,29.63,WNW,300,9.0,11.0,38,0.00,,,0.00,0,WeatherCatV1.15B25,2013-07-07 06:57:00,